Temp
10 9 9 9 9 9 10 11 12 11 11 10 10 11 11 11 12 13 13 14 13 13 12 12 12 12 12 12 12 11 10 9 9 8 8 7 7 7 6 6 6 6 6 6 6 6 6 6 7
9 8 8 8 9 9 11 12 12 11 11 11 10 10 11 11 11 12 13 14 13 13 12 12 12 12 12 11 11 11 11 10 9 8 8 7 7 6 6 6 6 6 6 6 6 6 6 6 6
8 8 7 7 8 10 12 12 12 11 11 11 11 10 11 11 11 12 12 13 13 13 12 12 12 12 12 11 11 11 11 10 9 8 8 7 7 6 6 6 6 6 6 6 6 6 6 6 6
8 7 7 7 8 11 12 11 11 11 11 11 11 11 10 11 11 12 13 13 13 13 12 12 11 11 11 11 11 11 11 11 10 9 8 7 7 6 6 5 5 5 6 6 5 5 6 5 5
7 7 6 6 8 9 10 11 10 11 11 12 11 11 11 11 11 12 12 12 12 12 12 11 11 11 11 11 11 11 11 10 10 9 8 7 7 6 6 6 6 5 5 5 5 5 5 5 5
7 7 6 6 8 9 10 10 10 10 10 10 10 11 11 11 11 11 11 11 11 12 11 11 11 11 11 11 11 11 11 11 10 9 8 7 7 6 6 6 5 5 5 5 5 5 5 5 5
6 6 6 6 6 8 9 9 9 9 9 10 9 10 10 11 11 12 11 11 11 11 11 11 11 11 11 11 10 10 10 10 10 9 8 7 7 6 6 5 5 5 5 5 5 5 5 5 5
5 5 4 4 5 6 8 8 8 8 8 9 9 8 9 10 11 11 11 10 11 11 11 11 11 11 11 11 11 10 10 10 10 9 8 7 7 6 6 5 5 5 5 5 5 5 5 5 5
6 4 4 5 5 6 6 8 8 8 7 7 7 7 9 9 10 10 10 10 10 11 11 11 11 10 10 10 10 10 10 10 9 9 8 8 7 7 6 6 5 5 5 5 5 5 5 5 4
5 5 6 6 5 6 6 7 8 9 8 8 8 8 8 8 9 9 10 10 10 11 11 11 11 10 10 10 10 10 10 10 9 9 8 8 7 7 6 6 6 5 5 5 5 5 5 5 4
5 5 6 5 5 5 6 7 8 9 8 8 8 9 8 8 8 9 9 10 10 10 10 11 11 10 10 10 10 10 10 9 9 9 8 8 7 7 7 7 6 6 5 5 5 5 5 5 5
5 6 5 5 5 5 6 5 7 8 8 8 8 8 8 8 8 9 9 9 9 10 10 10 10 10 10 10 10 10 10 9 9 9 8 8 7 7 7 7 6 6 6 5 5 5 5 5 4
5 5 5 5 5 4 4 5 6 8 8 8 8 8 8 8 8 8 9 9 9 9 9 10 10 10 10 10 10 10 10 9 9 8 8 8 8 7 7 7 6 6 6 6 5 5 5 5 5
5 5 5 5 4 4 4 5 5 6 6 7 8 8 8 8 8 8 8 9 9 9 9 9 10 10 9 9 9 9 9 9 9 8 8 8 8 7 7 7 6 6 6 6 6 6 5 5 5
4 4 4 4 4 3 3 5 6 5 5 6 7 7 8 8 8 9 8 8 8 8 9 9 9 9 9 9 9 9 9 9 8 8 8 8 7 7 7 7 6 6 6 6 6 6 5 5 5
2 3 2 1 1 1 0 6 3 3 3 3 4 6 7 8 8 8 8 7 8 8 8 8 8 9 9 9 9 9 9 8 8 8 8 8 7 7 7 7 6 6 6 6 6 6 6 5 5
1 0 0 1 1 -1 -1 2 1 1 2 3 3 3 5 8 8 8 8 7 8 8 8 8 8 8 9 9 8 8 8 8 8 7 7 7 7 7 7 6 6 6 6 6 6 5 6 5 5
-2 -2 -0 0 0 -2 -2 -0 3 2 1 2 2 2 2 4 9 6 7 8 7 7 8 8 8 8 8 8 8 8 7 7 7 7 7 7 7 7 7 6 6 6 6 6 6 5 5 5 5
-3 -2 -2 0 0 -3 -1 -1 1 3 1 0 0 1 1 2 4 4 6 7 7 7 7 8 8 7 7 8 8 8 7 7 7 7 7 7 7 7 7 7 6 6 6 6 6 5 5 5 5
-3 -3 -2 -0 -0 -5 -2 -3 3 3 1 -0 -0 -0 -0 1 2 3 5 5 7 7 7 7 8 7 7 7 7 8 7 7 7 7 7 7 7 7 6 6 6 6 6 6 6 6 6 5 5
-3 -3 -3 -4 -3 -3 -6 -3 3 3 2 1 -0 -2 -2 -1 0 2 3 4 5 6 7 7 7 7 7 7 7 7 7 7 7 7 7 7 7 7 6 6 6 6 6 6 6 6 6 6 5
-4 -3 -4 -5 -5 -5 -5 -5 2 2 1 -0 -1 -2 -2 -3 -2 1 2 3 3 5 6 7 7 7 7 6 7 6 7 7 7 7 7 7 6 6 6 5 5 5 5 5 6 6 6 6 6
-3 -5 -4 -5 -5 -6 -4 -6 0 -1 -0 1 -2 -3 -2 -2 -2 -2 1 2 3 5 6 6 7 7 7 6 7 6 7 7 7 7 7 7 6 6 5 5 3 3 3 4 5 6 6 5 6
-4 -4 -4 -5 -6 -6 -4 -4 -0 -3 -4 -2 -3 -3 -3 -1 -1 -2 -2 1 2 4 5 6 6 7 7 7 6 7 6 7 7 6 6 6 6 5 5 4 3 2 2 2 4 4 4 5 4
-4 -5 -3 -3 -4 -1 -2 -2 -1 -4 -4 -4 -4 -4 -3 -2 -0 -0 -1 0 1 2 5 6 6 6 6 7 7 7 7 7 7 6 6 5 5 5 4 3 3 2 2 2 2 4 4 4 4
-5 -5 -4 -4 -2 -1 -2 -2 -3 -5 -5 -5 -5 -5 -3 -3 -2 0 1 1 2 2 5 5 6 6 6 6 6 7 7 7 6 6 6 5 5 4 4 4 4 2 2 2 3 4 4 4 4
-4 -5 -5 -5 -4 -4 -2 -3 -3 -5 -5 -5 -6 -4 -4 -3 -3 -2 0 1 3 4 4 5 5 5 6 6 6 7 6 6 6 5 5 4 4 4 4 4 4 4 4 3 4 4 5 4 4
-4 -4 -4 -5 -4 -3 -0 -4 -7 -6 -5 -7 -5 -6 -5 -4 -2 -1 -0 1 2 4 4 3 4 5 6 5 5 5 5 5 4 4 3 4 3 4 4 4 4 4 4 4 4 4 5 5 5
-5 -5 -5 -5 -5 -3 -2 -5 -7 -7 -7 -7 -7 -5 -5 -4 -3 -2 -1 0 0 1 1 1 1 2 4 4 3 3 2 3 3 3 3 3 3 4 4 4 4 4 4 4 4 4 5 5 5
-5 -6 -5 -5 -3 -4 -3 -7 -7 -7 -7 -6 -7 -6 -6 -5 -4 -3 -2 -1 -0 -0 -0 -0 -0 0 1 1 1 1 2 1 1 2 3 3 4 4 4 4 4 4 4 4 4 4 4 5 4
Height
3144 3144 3145 3147 3153 3148 3147 3147 3146 3147 3148 3147 3147 3146 3148 3148 3149 3152 3149 3149 3150 3152 3155 3157 3157 3157 3156 3155 3156 3158 3158 3158 3160 3160 3160 3161 3162 3163 3165 3166 3167 3169 3170 3171 3172 3172 3173 3174 3174
3142 3141 3143 3143 3146 3146 3144 3144 3146 3146 3147 3147 3146 3145 3146 3147 3146 3146 3148 3147 3149 3152 3154 3156 3156 3156 3156 3155 3156 3157 3157 3157 3158 3159 3160 3160 3162 3163 3164 3165 3167 3169 3170 3171 3172 3173 3173 3174 3174
3139 3140 3141 3140 3140 3141 3141 3142 3144 3144 3145 3146 3146 3146 3145 3145 3145 3144 3146 3147 3148 3151 3153 3155 3155 3155 3155 3155 3154 3155 3157 3156 3157 3158 3158 3159 3161 3163 3164 3165 3167 3168 3169 3171 3172 3172 3173 3174 3174
3136 3138 3138 3136 3136 3139 3138 3140 3142 3144 3145 3144 3144 3144 3145 3144 3143 3143 3144 3146 3148 3150 3152 3154 3154 3154 3154 3154 3153 3154 3155 3155 3155 3156 3157 3159 3159 3162 3164 3165 3166 3167 3169 3170 3171 3172 3172 3173 3173
3133 3133 3131 3130 3132 3136 3137 3138 3139 3140 3140 3140 3140 3139 3142 3142 3141 3142 3144 3147 3148 3150 3152 3153 3153 3153 3153 3152 3153 3154 3154 3154 3154 3155 3155 3157 3159 3161 3163 3164 3166 3167 3168 3169 3170 3171 3171 3172 3172
3129 3129 3126 3125 3128 3132 3134 3134 3133 3134 3135 3136 3135 3135 3138 3137 3139 3140 3142 3146 3147 3149 3150 3151 3151 3152 3152 3152 3152 3152 3153 3153 3153 3154 3155 3156 3158 3160 3162 3164 3165 3166 3167 3168 3169 3170 3170 3171 3171
3125 3124 3121 3121 3123 3126 3132 3131 3128 3127 3129 3132 3130 3131 3134 3134 3136 3137 3140 3142 3145 3146 3147 3148 3148 3149 3150 3150 3150 3151 3152 3152 3152 3153 3154 3156 3157 3159 3161 3163 3165 3165 3166 3167 3168 3169 3169 3170 3170
3121 3120 3117 3118 3120 3120 3126 3126 3123 3122 3121 3125 3125 3125 3129 3131 3131 3132 3134 3138 3140 3142 3142 3144 3145 3146 3147 3148 3149 3149 3150 3150 3151 3152 3153 3155 3157 3158 3160 3162 3163 3164 3164 3166 3166 3167 3168 3168 3169
3117 3116 3113 3115 3116 3115 3116 3118 3118 3117 3114 3117 3119 3119 3122 3123 3125 3127 3128 3132 3135 3137 3138 3139 3141 3143 3145 3146 3147 3147 3147 3149 3149 3151 3152 3153 3155 3157 3159 3161 3162 3162 3162 3164 3165 3166 3166 3167 3167
3112 3109 3109 3109 3110 3108 3109 3112 3112 3109 3110 3109 3112 3116 3116 3118 3119 3121 3123 3127 3131 3133 3135 3136 3138 3140 3141 3142 3144 3145 3145 3145 3147 3149 3150 3152 3154 3156 3158 3159 3160 3161 3161 3162 3163 3164 3165 3165 3165
3104 3103 3105 3103 3103 3102 3101 3103 3106 3102 3100 3102 3106 3109 3109 3110 3114 3115 3116 3119 3125 3127 3129 3132 3134 3136 3138 3140 3141 3143 3143 3144 3145 3147 3149 3150 3152 3154 3156 3157 3158 3159 3159 3160 3161 3162 3162 3163 3163
3100 3100 3099 3098 3097 3096 3096 3094 3094 3096 3093 3097 3098 3100 3099 3102 3107 3109 3111 3113 3115 3120 3124 3127 3129 3132 3134 3136 3137 3139 3141 3142 3144 3145 3146 3148 3150 3152 3154 3156 3156 3157 3158 3158 3159 3159 3160 3160 3161
3093 3093 3092 3092 3092 3091 3089 3086 3084 3080 3089 3092 3090 3089 3091 3092 3096 3099 3103 3104 3107 3111 3117 3120 3123 3127 3129 3131 3134 3135 3137 3139 3141 3143 3145 3146 3148 3150 3152 3153 3154 3155 3156 3156 3156 3157 3157 3157 3158
3087 3085 3086 3086 3085 3082 3080 3078 3076 3073 3078 3078 3079 3078 3080 3081 3082 3088 3093 3095 3098 3103 3107 3114 3117 3121 3124 3127 3130 3132 3133 3135 3137 3140 3142 3144 3146 3147 3149 3151 3152 3152 3153 3154 3154 3154 3155 3155 3155
3082 3079 3078 3079 3078 3076 3074 3067 3065 3065 3061 3065 3070 3067 3069 3071 3071 3075 3082 3086 3090 3093 3100 3103 3110 3114 3118 3121 3124 3127 3129 3131 3134 3136 3139 3141 3143 3145 3146 3148 3149 3150 3150 3151 3151 3152 3153 3153 3153
3077 3074 3072 3073 3071 3073 3070 3044 3057 3055 3055 3052 3052 3056 3055 3058 3059 3063 3069 3075 3079 3083 3085 3095 3100 3106 3111 3115 3118 3121 3124 3127 3130 3132 3134 3137 3139 3141 3143 3144 3146 3147 3147 3148 3148 3149 3150 3150 3151
3072 3069 3068 3065 3067 3067 3064 3043 3044 3045 3043 3037 3037 3039 3042 3043 3046 3048 3052 3061 3067 3072 3076 3081 3088 3095 3103 3108 3112 3115 3118 3122 3125 3127 3130 3132 3134 3137 3138 3140 3142 3143 3143 3144 3144 3145 3146 3147 3148
3071 3067 3062 3060 3062 3059 3053 3041 3031 3035 3028 3022 3022 3022 3021 3026 3027 3034 3039 3046 3053 3058 3065 3070 3077 3085 3093 3099 3104 3107 3110 3114 3118 3121 3125 3127 3129 3131 3133 3135 3136 3137 3138 3140 3140 3141 3141 3143 3143
3068 3065 3059 3054 3055 3049 3044 3036 3026 3018 3019 3012 3007 3004 3001 3001 3007 3015 3018 3028 3036 3043 3050 3057 3065 3074 3082 3086 3092 3098 3102 3106 3110 3114 3118 3120 3123 3126 3127 3129 3130 3132 3133 3134 3135 3135 3135 3137 3138
3066 3060 3055 3044 3046 3048 3033 3028 3019 3011 3003 3001 2991 2984 2982 2981 2984 2995 2997 3008 3020 3028 3035 3046 3054 3063 3071 3080 3087 3091 3096 3100 3104 3107 3111 3114 3116 3118 3121 3123 3125 3126 3127 3128 3128 3129 3130 3131 3132
3062 3057 3052 3050 3036 3033 3027 3017 3004 3003 2996 2988 2980 2970 2965 2963 2962 2971 2983 2988 3003 3013 3021 3031 3042 3052 3061 3070 3078 3083 3087 3091 3095 3100 3102 3106 3109 3112 3114 3117 3118 3119 3120 3121 3122 3123 3123 3124 3125
3056 3055 3050 3046 3044 3033 3029 3019 2991 2988 2984 2983 2973 2965 2956 2949 2948 2954 2966 2969 2986 2998 3011 3019 3030 3041 3052 3061 3068 3073 3078 3084 3089 3093 3096 3099 3101 3104 3105 3107 3110 3113 3114 3116 3116 3116 3117 3117 3117
3053 3050 3046 3042 3040 3035 3026 3023 2989 2993 2979 2969 2963 2955 2942 2937 2935 2941 2948 2957 2969 2983 2997 3008 3018 3029 3039 3049 3059 3066 3070 3076 3080 3084 3087 3092 3093 3095 3096 3095 3093 3098 3105 3107 3109 3109 3111 3110 3109
3049 3044 3039 3034 3035 3033 3020 3020 2987 2993 2983 2964 2953 2943 2935 2929 2929 2934 2938 2950 2961 2972 2985 2998 3010 3019 3029 3039 3049 3055 3061 3065 3071 3075 3079 3083 3084 3087 3087 3085 3085 3076 3090 3098 3101 3102 3102 3103 3102
3047 3045 3038 3033 3030 3019 3017 3014 3004 2995 2985 2969 2954 2945 2936 2931 2928 2933 2940 2948 2958 2967 2979 2991 3003 3012 3022 3032 3040 3046 3052 3057 3063 3067 3070 3073 3075 3080 3081 3082 3082 3085 3086 3088 3092 3093 3095 3094 3094
3046 3046 3044 3036 3026 3015 3011 3008 3001 2996 2984 2971 2958 2948 2940 2937 2934 2936 2943 2950 2958 2965 2975 2986 2998 3007 3016 3026 3033 3038 3044 3050 3055 3059 3062 3064 3068 3072 3073 3074 3078 3075 3079 3079 3082 3085 3085 3084 3085
3044 3043 3041 3036 3029 3024 3009 3005 3002 2995 2983 2974 2962 2953 2939 2944 2943 2944 2948 2954 2960 2967 2975 2986 2996 3005 3011 3020 3026 3031 3036 3042 3046 3051 3055 3057 3061 3064 3068 3069 3069 3070 3069 3071 3074 3075 3075 3074 3075
3045 3044 3040 3036 3029 3018 3007 3008 3006 2993 2985 2977 2968 2960 2951 2949 2951 2951 2952 2958 2962 2967 2976 2987 2990 2999 3005 3014 3019 3026 3031 3035 3040 3042 3047 3051 3054 3056 3058 3059 3061 3060 3060 3061 3063 3064 3065 3064 3066
3042 3041 3039 3037 3032 3022 3011 3013 3010 3001 2992 2983 2975 2967 2962 2957 2955 2958 2959 2961 2966 2970 2976 2982 2993 2996 2999 3008 3015 3020 3027 3031 3033 3035 3038 3040 3043 3045 3047 3049 3049 3050 3050 3051 3052 3052 3054 3053 3054
3039 3038 3036 3033 3027 3023 3015 3018 3013 3005 2997 2990 2983 2975 2970 2966 2963 2961 2963 2967 2969 2973 2978 2983 2988 2992 2999 3005 3010 3017 3021 3023 3027 3030 3031 3033 3035 3036 3036 3037 3037 3037 3038 3038 3038 3038 3040 3040 3042
Wind_Speed
12 11 11 12 9 6 11 7 4 9 1 3 10 8 8 6 8 5 7 7 19 17 15 13 9 5 4 4 4 4 4 5 8 9 9 8 6 6 4 4 6 5 2 2 3 2 1 1 2
14 13 12 12 10 8 16 12 8 10 5 6 6 1 1 5 7 9 6 5 15 16 15 14 9 4 2 3 2 3 6 6 8 9 9 8 7 7 4 5 6 4 3 1 1 1 1 1 2
15 15 14 9 13 18 17 12 4 2 5 6 6 5 4 5 5 8 7 5 11 18 17 14 8 4 3 3 1 2 6 7 8 8 8 8 8 8 6 6 5 3 3 1 0 1 0 1 2
17 17 18 18 17 10 13 10 5 5 8 11 13 9 8 8 10 5 4 5 12 14 18 13 8 5 5 4 2 2 5 6 6 7 7 8 8 8 7 7 5 5 5 3 3 2 3 3 2
19 20 23 22 25 22 20 20 20 18 14 15 16 19 14 12 9 5 9 11 13 16 15 10 7 6 6 4 3 3 4 6 5 6 8 9 8 8 8 8 7 7 6 5 5 5 3 2 3
21 23 23 26 27 23 20 19 23 23 23 23 23 21 15 17 11 8 14 13 14 15 13 10 7 7 6 5 4 4 5 5 6 7 9 9 9 9 9 9 8 8 8 8 7 5 4 4 5
23 25 29 29 30 30 23 24 28 29 28 25 28 25 18 17 16 13 19 19 17 19 14 10 7 7 8 8 8 7 7 6 7 9 10 10 10 10 9 9 9 9 10 8 6 5 5 5 4
24 27 27 24 25 33 28 28 31 32 32 27 26 19 18 18 17 19 23 25 23 22 17 14 10 9 8 10 11 10 9 8 8 9 10 10 11 10 9 9 9 9 9 8 6 6 5 6 5
23 28 28 31 31 32 31 30 31 34 37 35 31 29 21 21 21 20 27 29 28 26 20 17 15 13 9 12 13 11 11 10 10 9 10 11 10 9 8 8 8 8 9 8 7 7 6 7 7
24 31 33 32 31 34 34 31 31 36 36 39 36 30 30 26 25 20 28 32 31 27 24 20 18 16 12 13 15 12 12 13 12 11 10 10 10 9 8 8 7 8 9 7 7 8 7 7 8
31 33 31 33 34 36 37 35 32 35 40 41 37 33 32 30 28 27 21 38 36 35 30 24 20 19 15 14 15 14 13 13 13 12 12 12 11 10 9 7 6 6 7 7 7 8 9 10 9
30 30 32 35 37 38 40 42 39 37 42 38 36 37 36 32 27 31 24 37 42 41 37 30 26 23 17 17 16 15 14 14 13 13 13 12 11 10 9 8 8 7 8 8 6 7 9 11 12
30 32 34 36 37 39 41 44 46 47 40 39 40 40 40 39 35 31 30 37 46 45 43 36 31 27 21 21 19 17 17 16 15 15 13 11 10 10 10 10 8 8 8 8 7 7 7 9 12
30 33 33 35 34 37 40 42 44 47 42 43 43 43 41 42 42 39 35 37 47 48 47 43 35 30 26 23 22 20 18 19 18 18 16 14 12 11 11 12 10 10 9 9 9 8 7 8 9
25 32 35 34 26 24 34 48 45 34 38 40 40 46 47 44 45 45 41 39 45 51 49 49 42 34 31 27 26 24 21 23 21 19 18 17 15 14 13 13 13 13 12 12 11 9 9 7 7
27 30 25 19 29 30 27 55 41 46 42 42 44 46 49 50 53 48 45 44 44 50 55 53 49 41 36 31 29 29 28 25 23 21 20 19 18 17 17 16 15 16 17 16 15 13 12 11 8
19 23 31 32 30 22 26 49 39 47 50 52 51 51 51 53 56 54 51 46 48 51 55 57 56 48 40 34 32 31 30 29 27 26 24 22 21 20 21 20 19 20 21 21 19 18 16 16 14
18 23 29 31 27 35 42 50 52 48 52 56 54 52 52 51 60 56 54 50 52 52 56 59 58 53 46 38 35 35 34 33 33 30 28 27 25 25 25 25 24 25 25 24 23 22 20 20 19
15 20 29 33 31 37 39 42 50 53 48 53 55 57 58 58 53 55 60 55 53 56 54 62 60 56 51 46 40 38 35 34 34 33 31 31 30 28 27 26 26 28 27 25 25 26 25 24 24
15 24 28 36 32 31 40 40 41 39 45 42 43 47 48 54 59 52 60 59 54 61 54 52 60 55 52 47 38 39 35 33 31 32 32 33 33 32 31 26 26 27 28 28 27 26 25 26 27
17 23 26 29 41 37 12 32 49 48 36 47 42 36 40 46 51 47 49 53 54 58 58 52 54 57 53 46 41 43 39 38 37 35 34 36 37 37 33 30 30 29 29 28 28 28 28 27 28
21 13 27 27 24 19 21 12 56 44 54 47 44 39 34 32 44 43 37 45 51 54 58 49 46 49 51 46 45 48 44 40 36 37 38 38 40 39 38 32 31 28 26 23 23 26 29 30 30
20 24 24 28 24 25 12 9 31 49 49 51 46 39 46 44 29 38 41 40 46 51 59 51 46 40 48 52 47 46 45 42 39 38 38 37 40 42 46 44 30 33 26 25 25 25 26 27 32
23 23 28 12 10 6 7 7 44 29 43 46 42 36 36 21 16 26 27 41 43 44 54 53 45 40 43 49 48 47 45 43 41 39 38 39 42 43 45 44 50 33 28 27 30 28 29 29 32
15 21 6 2 3 6 12 20 16 33 38 21 17 25 25 19 13 18 20 35 33 30 40 51 46 41 40 44 46 46 46 45 44 42 41 41 41 41 43 43 45 45 27 24 30 31 33 33 33
16 9 4 5 5 15 22 5 13 32 28 13 6 1 10 11 13 16 21 25 25 30 42 39 46 41 40 40 43 44 44 47 45 43 41 46 42 39 36 44 46 32 28 24 34 36 34 37 35
3 4 11 7 13 8 7 10 14 32 28 22 12 12 20 12 13 20 24 22 32 36 44 40 40 39 39 43 42 43 45 39 40 37 35 33 31 32 38 39 32 28 27 31 34 36 35 35 36
12 14 6 5 5 7 7 5 23 36 31 24 17 20 25 28 30 28 29 29 33 35 34 36 33 36 38 40 38 36 38 33 31 28 28 32 33 36 33 30 32 34 36 37 39 39 37 37 38
16 11 9 12 9 4 6 5 24 24 25 24 19 13 20 24 30 28 27 28 26 26 27 28 31 32 32 31 32 34 29 30 32 32 32 30 29 33 35 37 40 43 45 46 46 46 41 41 41
15 11 10 6 4 11 14 4 22 20 21 22 22 18 17 20 21 28 31 32 35 34 33 31 28 27 26 26 29 27 29 27 26 27 27 30 33 36 41 45 46 47 47 45 45 44 41 43 44
Wind_Direction
264 273 282 284 268 236 269 285 311 278 268 7 326 291 279 259 261 259 290 315 219 216 220 222 200 174 115 93 49 349 304 278 282 282 280 275 266 239 246 176 180 180 203 228 229 227 214 204 217
257 258 260 259 243 240 289 285 311 274 250 319 326 325 296 301 304 276 286 316 216 213 210 216 201 184 170 128 91 334 307 284 277 273 271 262 251 233 229 190 196 204 302 257 172 197 214 246 260
263 261 260 249 238 242 263 275 7 328 247 306 325 307 293 269 298 250 298 276 218 213 206 206 201 206 174 147 108 308 295 289 274 265 255 246 232 225 218 199 215 257 307 296 16 12 1 256 258
263 260 256 243 242 240 262 282 300 248 270 285 295 287 276 298 282 273 207 207 203 217 205 198 211 210 198 184 181 268 276 279 266 247 233 228 221 222 213 214 222 253 285 284 310 316 318 284 256
265 264 258 250 255 263 274 279 283 276 265 262 270 269 276 278 285 233 188 208 201 207 201 208 223 216 205 197 205 228 249 255 237 224 214 211 213 219 213 215 231 246 265 277 290 298 303 271 289
261 261 256 257 268 276 275 285 284 276 269 267 274 265 267 265 255 221 196 217 207 202 210 216 223 217 213 215 221 222 234 234 213 201 200 203 207 212 207 216 233 247 263 275 286 284 278 270 295
260 261 261 265 271 272 274 276 280 282 280 275 280 278 266 262 249 233 207 214 214 202 203 202 197 200 211 213 214 218 222 213 205 191 192 198 204 203 208 224 238 252 267 274 274 261 272 277 293
262 262 263 267 273 277 277 273 276 278 278 276 278 275 266 253 248 220 208 218 214 209 205 205 209 219 225 226 221 210 213 205 201 190 189 194 200 204 212 227 240 251 263 267 265 257 260 263 287
266 263 264 270 277 283 279 272 267 270 275 272 268 269 268 252 243 231 210 215 215 213 218 220 226 221 230 227 224 219 204 206 196 197 191 193 197 203 207 222 230 242 255 264 273 268 261 255 268
266 266 271 276 276 277 282 279 279 272 271 270 271 269 270 262 242 240 220 214 217 225 231 234 236 227 236 227 222 227 215 203 202 192 191 188 191 195 202 216 218 231 248 261 277 285 283 265 267
269 269 278 276 276 280 281 282 278 277 276 281 277 269 263 263 249 243 248 213 216 221 223 233 235 227 239 228 223 230 224 209 200 194 190 190 194 198 203 212 210 219 240 256 270 282 282 276 276
273 276 276 275 276 279 281 282 277 272 276 279 281 275 267 262 255 242 247 219 213 221 222 225 225 229 236 226 220 223 230 214 205 199 194 195 198 201 206 214 218 220 231 246 262 278 281 280 279
272 273 274 277 279 281 282 280 283 272 273 277 273 271 270 266 255 239 236 222 219 220 224 225 225 225 228 228 221 216 225 220 206 203 198 195 196 204 210 212 217 220 228 243 254 272 287 284 277
276 281 282 280 285 286 284 281 279 283 284 275 274 268 264 261 257 243 230 227 222 220 222 227 228 226 227 230 227 220 224 222 215 208 202 200 199 203 211 215 214 218 222 235 248 261 280 296 291
284 285 282 291 290 287 296 287 284 284 287 281 273 271 265 259 256 247 235 227 225 221 223 224 227 226 225 229 230 228 227 224 218 214 211 211 212 213 216 221 222 224 229 238 248 259 266 288 302
292 294 302 294 300 316 307 289 289 288 288 286 280 270 264 258 255 251 242 231 223 225 221 223 226 225 224 228 231 232 227 228 223 222 221 221 223 225 229 231 233 234 237 242 247 255 262 266 283
303 304 302 308 319 304 304 294 297 300 300 296 289 280 268 257 251 251 245 232 222 222 221 221 223 224 223 225 230 234 231 231 231 230 231 231 233 235 239 241 242 243 245 247 250 252 258 262 265
305 306 307 310 321 309 300 298 307 306 299 294 289 287 283 267 249 253 247 236 224 220 221 220 221 223 222 222 226 232 233 230 230 231 234 238 241 242 243 244 245 246 249 251 253 254 256 259 260
297 295 296 313 317 309 306 302 309 305 309 311 298 286 279 272 259 254 249 241 225 218 217 220 220 222 220 219 221 225 225 222 223 224 230 237 242 245 243 241 242 245 247 250 253 253 254 256 258
292 295 303 307 318 311 309 302 323 320 325 333 306 286 275 272 264 252 247 239 225 216 214 218 218 218 220 220 221 221 218 217 222 224 229 232 236 237 239 242 244 245 244 245 249 254 258 258 258
294 295 314 306 314 317 319 314 320 321 316 321 328 305 279 266 259 252 248 242 226 218 213 211 216 215 214 219 220 218 219 220 224 224 230 233 234 235 239 244 246 247 247 243 248 251 257 262 262
286 311 314 307 310 304 325 295 317 327 324 322 311 313 301 293 266 244 231 243 220 216 212 208 207 211 214 219 222 218 221 223 227 232 236 237 236 235 236 232 235 238 240 241 249 254 260 262 265
303 317 313 308 289 294 305 271 303 324 327 318 308 306 292 291 264 248 226 227 208 209 207 207 204 213 217 218 220 225 222 224 227 230 236 239 240 239 240 236 231 229 234 247 249 257 263 276 270
316 316 322 296 263 262 241 320 311 337 328 321 316 293 302 305 252 248 230 210 208 201 203 203 203 210 209 212 220 223 225 227 231 235 239 242 246 245 245 245 260 264 228 244 259 264 268 280 274
324 324 311 293 214 261 299 316 314 320 333 341 323 305 294 298 240 233 225 215 214 210 200 202 203 207 210 213 218 223 227 231 235 238 242 244 245 248 255 260 269 270 246 253 265 268 271 274 265
308 295 285 302 305 300 312 268 318 337 343 349 24 268 296 247 202 205 214 214 213 191 189 196 201 211 217 221 226 231 235 241 239 239 247 246 249 252 260 272 277 258 256 265 264 267 272 268 264
326 271 300 267 274 285 290 317 330 342 347 7 46 104 119 145 164 178 188 188 184 186 186 194 202 213 218 222 226 229 238 239 238 243 245 250 247 247 257 264 267 266 267 265 262 265 273 268 264
15 359 331 250 302 299 301 27 335 349 345 359 24 61 89 110 133 155 169 175 180 183 191 201 210 213 220 224 225 226 235 234 235 236 236 246 252 255 251 255 264 272 275 272 270 270 270 270 266
351 322 313 302 251 284 315 64 354 355 351 357 22 31 77 98 118 132 150 160 166 174 176 175 185 186 194 200 213 214 212 222 230 245 247 243 242 251 260 266 269 268 270 272 270 268 265 264 263
5 344 316 262 284 280 269 61 357 2 19 22 26 41 59 83 103 125 136 149 151 152 154 154 157 158 167 173 185 198 209 215 220 228 241 250 252 255 258 261 267 271 271 269 269 267 263 260 258